BM1CCR-13 Weather Reports


time (UTC)temp
F
wind
direction
speed
knots
gust
knots
rain 1hr
in
rain 24hr
in
rain mn
in
humidity
%
barometer
mb
20260504110504 66 0 0.0 0.0 0.00 0.00 0.00 82 1008.3
20260504100502 68 0 0.0 0.0 0.00 0.00 0.00 67 1007.5
20260504082002 71 0 0.0 0.0 0.00 0.00 0.00 52 1006.5
20260504081500 71 0 0.0 0.0 0.00 0.00 0.00 52 1006.4
20260504081012 71 0 0.0 0.0 0.00 0.00 0.00 52 1006.3
20260504081000 71 0 0.0 0.0 0.00 0.00 0.00 52 1006.2
20260504080512 71 0 0.0 0.0 0.00 0.00 0.00 51 1006.4
20260504080501 71 0 0.0 0.0 0.00 0.00 0.00 51 1006.2
20260504050506 77 0 0.0 0.0 0.00 0.00 0.00 58 1007.1
20260504050454 77 0 0.0 0.0 0.00 0.00 0.00 58 1007.2
20260504045954 77 0 0.0 0.0 0.00 0.00 0.00 57 1007.0
20260504045454 78 0 0.0 0.0 0.00 0.00 0.00 58 1007.0
20260504045006 77 0 0.0 0.0 0.00 0.00 0.00 59 1007.1
20260504044954 77 0 0.0 0.0 0.00 0.00 0.00 59 1007.0
20260504044507 75 0 0.0 0.0 0.00 0.00 0.00 61 1007.1
20260504044454 75 0 0.0 0.0 0.00 0.00 0.00 61 1007.0
20260504043954 75 0 0.0 0.0 0.00 0.00 0.00 61 1007.3
20260504043454 75 0 0.0 0.0 0.00 0.00 0.00 63 1007.2
20260504042954 75 0 0.0 0.0 0.00 0.00 0.00 63 1007.5
20260504042504 75 0 0.0 0.0 0.00 0.00 0.00 61 1007.4
20260504042454 75 0 0.0 0.0 0.00 0.00 0.00 61 1007.3
20260504042004 75 0 0.0 0.0 0.00 0.00 0.00 61 1007.3
20260504041952 75 0 0.0 0.0 0.00 0.00 0.00 61 1007.4
20260504041452 75 0 0.0 0.0 0.00 0.00 0.00 62 1007.3
20260504040953 73 0 0.0 0.0 0.00 0.00 0.00 65 1007.3
20260504040505 73 0 0.0 0.0 0.00 0.00 0.00 66 1007.5
20260504040453 73 0 0.0 0.0 0.00 0.00 0.00 66 1007.4
20260504040005 71 0 0.0 0.0 0.00 0.00 0.00 66 1007.5
20260504035952 71 0 0.0 0.0 0.00 0.00 0.00 66 1007.6
20260504035453 73 0 0.0 0.0 0.00 0.00 0.00 67 1007.8
20260504035007 73 0 0.0 0.0 0.00 0.00 0.00 65 1007.7
20260504034952 73 0 0.0 0.0 0.00 0.00 0.00 65 1007.6
20260504034452 73 0 0.0 0.0 0.00 0.00 0.00 65 1007.6
20260504034005 73 0 0.0 0.0 0.00 0.00 0.00 66 1007.5
20260504033952 73 0 0.0 0.0 0.00 0.00 0.00 67 1007.5
20260504033453 73 0 0.0 0.0 0.00 0.00 0.00 68 1007.7
20260504032953 73 0 0.0 0.0 0.00 0.00 0.00 66 1007.8
20260504032505 73 0 0.0 0.0 0.00 0.00 0.00 64 1007.7
20260504032452 73 0 0.0 0.0 0.00 0.00 0.00 64 1007.6
20260504031951 75 0 0.0 0.0 0.00 0.00 0.00 63 1007.7
20260504031505 75 0 0.0 0.0 0.00 0.00 0.00 64 1007.9
20260504031451 75 0 0.0 0.0 0.00 0.00 0.00 65 1007.8
20260504031006 75 0 0.0 0.0 0.00 0.00 0.00 67 1007.7
20260504030951 75 0 0.0 0.0 0.00 0.00 0.00 66 1007.7
20260504030451 75 0 0.0 0.0 0.00 0.00 0.00 65 1007.8
20260504025951 75 0 0.0 0.0 0.00 0.00 0.00 62 1007.9
20260504025451 73 0 0.0 0.0 0.00 0.00 0.00 64 1007.9
20260504024952 71 0 0.0 0.0 0.00 0.00 0.00 69 1007.9
20260504024504 71 0 0.0 0.0 0.00 0.00 0.00 71 1008.1
20260504024451 71 0 0.0 0.0 0.00 0.00 0.00 72 1008.1
20260504023951 71 0 0.0 0.0 0.00 0.00 0.00 71 1008.2
20260504023504 71 0 0.0 0.0 0.00 0.00 0.00 70 1008.1
20260504023451 71 0 0.0 0.0 0.00 0.00 0.00 70 1008.2
20260504022951 71 0 0.0 0.0 0.00 0.00 0.00 71 1008.1
20260504022505 69 0 0.0 0.0 0.00 0.00 0.00 75 1008.0
20260504022451 69 0 0.0 0.0 0.00 0.00 0.00 76 1008.1
20260504021951 69 0 0.0 0.0 0.00 0.00 0.00 76 1008.2
20260504021504 69 0 0.0 0.0 0.00 0.00 0.00 77 1008.3
20260504021450 69 0 0.0 0.0 0.00 0.00 0.00 77 1008.4
20260504020950 69 0 0.0 0.0 0.00 0.00 0.00 76 1008.3
20260504020450 69 0 0.0 0.0 0.00 0.00 0.00 75 1008.3
20260504020003 69 0 0.0 0.0 0.00 0.00 0.00 78 1008.2
20260504015950 69 0 0.0 0.0 0.00 0.00 0.00 78 1008.1
20260504015451 69 0 0.0 0.0 0.00 0.00 0.00 81 1008.1
20260504014951 69 0 0.0 0.0 0.00 0.00 0.00 80 1008.5
20260504014450 68 0 0.0 0.0 0.00 0.00 0.00 82 1008.5
20260504014003 69 0 0.0 0.0 0.00 0.00 0.00 79 1008.6
20260504013949 68 0 0.0 0.0 0.00 0.00 0.00 79 1008.6
20260504013503 69 0 0.0 0.0 0.00 0.00 0.00 83 1008.6
20260504013450 68 0 0.0 0.0 0.00 0.00 0.00 83 1008.6
20260504013005 68 0 0.0 0.0 0.00 0.00 0.00 83 1008.3
20260504012950 69 0 0.0 0.0 0.00 0.00 0.00 83 1008.4
20260504012449 69 0 0.0 0.0 0.00 0.00 0.00 84 1008.3
20260504012003 69 0 0.0 0.0 0.00 0.00 0.00 84 1008.2
20260504011950 69 0 0.0 0.0 0.00 0.00 0.00 84 1008.1
20260504011505 69 0 0.0 0.0 0.00 0.00 0.00 86 1008.1
20260504011449 69 0 0.0 0.0 0.00 0.00 0.00 86 1008.2
20260504011003 69 0 0.0 0.0 0.00 0.00 0.00 85 1008.2
20260504010949 69 0 0.0 0.0 0.00 0.00 0.00 85 1008.3
20260504010450 69 0 0.0 0.0 0.00 0.00 0.00 86 1008.1
20260504010004 69 0 0.0 0.0 0.00 0.00 0.00 85 1008.0
20260504005950 69 0 0.0 0.0 0.00 0.00 0.00 85 1007.9
20260504005503 69 0 0.0 0.0 0.00 0.00 0.00 86 1008.1
20260504005450 69 0 0.0 0.0 0.00 0.00 0.00 86 1008.0
20260504005004 68 0 0.0 0.0 0.00 0.00 0.00 86 1008.2
20260504004950 68 0 0.0 0.0 0.00 0.00 0.00 86 1008.3
20260504004450 68 0 0.0 0.0 0.00 0.00 0.00 85 1008.2
20260504003950 69 0 0.0 0.0 0.00 0.00 0.00 86 1008.0
20260504003503 69 0 0.0 0.0 0.00 0.00 0.00 85 1007.9
20260504003450 69 0 0.0 0.0 0.00 0.00 0.00 85 1007.8
20260504003003 69 0 0.0 0.0 0.00 0.00 0.00 84 1007.9
20260504002950 69 0 0.0 0.0 0.00 0.00 0.00 85 1007.7
20260504002503 69 0 0.0 0.0 0.00 0.00 0.00 86 1007.9
20260504002450 69 0 0.0 0.0 0.00 0.00 0.00 86 1008.0
20260504001950 69 0 0.0 0.0 0.00 0.00 0.00 84 1008.1
20260504001504 69 0 0.0 0.0 0.00 0.00 0.00 85 1007.9
20260504001450 69 0 0.0 0.0 0.00 0.00 0.00 85 1008.0
20260504000950 69 0 0.0 0.0 0.00 0.00 0.00 85 1007.9
20260504000504 69 0 0.0 0.0 0.00 0.00 0.00 86 1008.1
20260504000450 69 0 0.0 0.0 0.00 0.00 0.00 86 1008.0
20260503235949 69 0 0.0 0.0 0.00 0.00 0.00 85 1008.0
20260503235503 69 0 0.0 0.0 0.00 0.00 0.00 85 1008.1
20260503235449 69 0 0.0 0.0 0.00 0.00 0.00 85 1008.2
20260503234949 69 0 0.0 0.0 0.00 0.00 0.00 86 1008.1
20260503234449 69 0 0.0 0.0 0.00 0.00 0.00 87 1008.1
20260503233949 68 0 0.0 0.0 0.00 0.00 0.00 86 1008.3
20260503233503 68 0 0.0 0.0 0.00 0.00 0.00 86 1008.3
20260503233449 68 0 0.0 0.0 0.00 0.00 0.00 86 1008.5
20260503232949 68 0 0.0 0.0 0.00 0.00 0.00 85 1008.6
20260503232501 68 0 0.0 0.0 0.00 0.00 0.00 83 1008.6
20260503232450 68 0 0.0 0.0 0.00 0.00 0.00 83 1008.5
20260503232002 68 0 0.0 0.0 0.00 0.00 0.00 83 1008.4
20260503231949 68 0 0.0 0.0 0.00 0.00 0.00 83 1008.3
20260503231449 68 0 0.0 0.0 0.00 0.00 0.00 85 1008.7
20260503231001 68 0 0.0 0.0 0.00 0.00 0.00 85 1008.7
20260503230950 68 0 0.0 0.0 0.00 0.00 0.00 86 1008.8
20260503230449 68 0 0.0 0.0 0.00 0.00 0.00 86 1008.6
20260503225949 68 0 0.0 0.0 0.00 0.00 0.00 86 1008.5
20260503225501 68 0 0.0 0.0 0.00 0.00 0.00 86 1008.3
20260503225449 68 0 0.0 0.0 0.00 0.00 0.00 86 1008.2
20260503224948 68 0 0.0 0.0 0.00 0.00 0.00 86 1008.1
20260503224449 68 0 0.0 0.0 0.00 0.00 0.00 85 1008.0
20260503224004 68 0 0.0 0.0 0.00 0.00 0.00 85 1008.1
20260503223949 68 0 0.0 0.0 0.00 0.00 0.00 85 1008.0
20260503223503 68 0 0.0 0.0 0.00 0.00 0.00 85 1007.8
20260503223447 68 0 0.0 0.0 0.00 0.00 0.00 85 1007.7
20260503222946 68 0 0.0 0.0 0.00 0.00 0.00 85 1007.8
20260503222503 68 0 0.0 0.0 0.00 0.00 0.00 85 1007.7
20260503222446 68 0 0.0 0.0 0.00 0.00 0.00 85 1007.9
20260503222004 68 0 0.0 0.0 0.00 0.00 0.00 85 1007.4
20260503221946 68 0 0.0 0.0 0.00 0.00 0.00 85 1007.3
20260503221502 68 0 0.0 0.0 0.00 0.00 0.00 84 1007.4
20260503221445 68 0 0.0 0.0 0.00 0.00 0.00 84 1007.3
20260503221003 68 0 0.0 0.0 0.00 0.00 0.00 84 1007.5
20260503220945 68 0 0.0 0.0 0.00 0.00 0.00 84 1007.4
20260503220445 68 0 0.0 0.0 0.00 0.00 0.00 84 1007.3
20260503215945 68 0 0.0 0.0 0.00 0.00 0.00 83 1007.1
20260503215503 68 0 0.0 0.0 0.00 0.00 0.00 83 1007.0
20260503215445 68 0 0.0 0.0 0.00 0.00 0.00 83 1007.1
20260503214945 68 0 0.0 0.0 0.00 0.00 0.00 83 1007.2
20260503214445 68 0 0.0 0.0 0.00 0.00 0.00 82 1006.9
20260503213945 69 0 0.0 0.0 0.00 0.00 0.00 81 1006.9
20260503213445 69 0 0.0 0.0 0.00 0.00 0.00 81 1006.8
20260503213003 69 0 0.0 0.0 0.00 0.00 0.00 81 1006.6
20260503212945 69 0 0.0 0.0 0.00 0.00 0.00 81 1006.8
20260503212503 69 0 0.0 0.0 0.00 0.00 0.00 80 1006.5
20260503212445 69 0 0.0 0.0 0.00 0.00 0.00 80 1006.3
20260503212004 69 0 0.0 0.0 0.00 0.00 0.00 79 1006.2
20260503211945 69 0 0.0 0.0 0.00 0.00 0.00 79 1006.1
20260503211445 69 0 0.0 0.0 0.00 0.00 0.00 79 1006.1
20260503210945 69 0 0.0 0.0 0.00 0.00 0.00 78 1006.1
20260503210446 69 0 0.0 0.0 0.00 0.00 0.00 77 1005.8
20260503205945 69 0 0.0 0.0 0.00 0.00 0.00 77 1005.9
20260503205446 69 0 0.0 0.0 0.00 0.00 0.00 76 1005.9
20260503204945 69 0 0.0 0.0 0.00 0.00 0.00 78 1006.0
20260503204503 69 0 0.0 0.0 0.00 0.00 0.00 77 1005.8
20260503204445 69 0 0.0 0.0 0.00 0.00 0.00 77 1006.0
20260503203945 69 0 0.0 0.0 0.00 0.00 0.00 77 1005.7
20260503203446 69 0 0.0 0.0 0.00 0.00 0.00 77 1005.7
20260503202944 69 0 0.0 0.0 0.00 0.00 0.00 76 1005.7
20260503202500 71 0 0.0 0.0 0.00 0.00 0.00 74 1005.7
20260503202444 71 0 0.0 0.0 0.00 0.00 0.00 74 1005.8
20260503201943 71 0 0.0 0.0 0.00 0.00 0.00 73 1005.6
20260503201502 71 0 0.0 0.0 0.00 0.00 0.00 72 1005.2
20260503201444 71 0 0.0 0.0 0.00 0.00 0.00 72 1005.3
20260503201002 71 0 0.0 0.0 0.00 0.00 0.00 72 1005.2
20260503200945 71 0 0.0 0.0 0.00 0.00 0.00 72 1005.1
20260503200445 71 0 0.0 0.0 0.00 0.00 0.00 72 1005.1
20260503195945 71 0 0.0 0.0 0.00 0.00 0.00 73 1005.0
20260503195500 71 0 0.0 0.0 0.00 0.00 0.00 73 1004.9
20260503195445 71 0 0.0 0.0 0.00 0.00 0.00 73 1005.0
20260503195000 71 0 0.0 0.0 0.00 0.00 0.00 74 1004.9
20260503194945 71 0 0.0 0.0 0.00 0.00 0.00 74 1005.1
20260503194445 71 0 0.0 0.0 0.00 0.00 0.00 74 1004.8
20260503193945 71 0 0.0 0.0 0.00 0.00 0.00 74 1004.8
20260503193445 71 0 0.0 0.0 0.00 0.00 0.00 75 1004.7
20260503193002 71 0 0.0 0.0 0.00 0.00 0.00 76 1004.7
20260503192945 71 0 0.0 0.0 0.00 0.00 0.00 76 1004.6
20260503192445 69 0 0.0 0.0 0.00 0.00 0.00 76 1004.7
20260503192000 71 0 0.0 0.0 0.00 0.00 0.00 77 1004.5
20260503191945 71 0 0.0 0.0 0.00 0.00 0.00 77 1004.4
20260503191500 71 0 0.0 0.0 0.00 0.00 0.00 77 1004.4
20260503191445 71 0 0.0 0.0 0.00 0.00 0.00 77 1004.5
20260503190945 71 0 0.0 0.0 0.00 0.00 0.00 78 1004.5
20260503190445 71 0 0.0 0.0 0.00 0.00 0.00 78 1004.5
20260503190000 69 0 0.0 0.0 0.00 0.00 0.00 78 1004.4
20260503185946 71 0 0.0 0.0 0.00 0.00 0.00 78 1004.4
20260503185445 71 0 0.0 0.0 0.00 0.00 0.00 78 1004.4
20260503184945 71 0 0.0 0.0 0.00 0.00 0.00 79 1004.4
20260503184459 71 0 0.0 0.0 0.00 0.00 0.00 79 1004.3
20260503184445 71 0 0.0 0.0 0.00 0.00 0.00 79 1004.4
20260503183959 71 0 0.0 0.0 0.00 0.00 0.00 78 1004.3
20260503183943 71 0 0.0 0.0 0.00 0.00 0.00 78 1004.4
20260503183443 71 0 0.0 0.0 0.00 0.00 0.00 78 1004.4
20260503183001 71 0 0.0 0.0 0.00 0.00 0.00 78 1004.4
20260503182944 71 0 0.0 0.0 0.00 0.00 0.00 79 1004.5
20260503182442 71 0 0.0 0.0 0.00 0.00 0.00 79 1004.5
20260503181958 71 0 0.0 0.0 0.00 0.00 0.00 79 1004.3
20260503181942 71 0 0.0 0.0 0.00 0.00 0.00 79 1004.4
20260503181442 71 0 0.0 0.0 0.00 0.00 0.00 79 1004.5
20260503180959 71 0 0.0 0.0 0.00 0.00 0.00 79 1004.5
20260503180942 71 0 0.0 0.0 0.00 0.00 0.00 79 1004.3
20260503180500 71 0 0.0 0.0 0.00 0.00 0.00 78 1004.4
20260503180442 71 0 0.0 0.0 0.00 0.00 0.00 78 1004.2
20260503175942 71 0 0.0 0.0 0.00 0.00 0.00 77 1004.4
20260503175501 71 0 0.0 0.0 0.00 0.00 0.00 77 1004.6
20260503175443 71 0 0.0 0.0 0.00 0.00 0.00 77 1004.5
20260503174958 71 0 0.0 0.0 0.00 0.00 0.00 77 1004.6
20260503174942 71 0 0.0 0.0 0.00 0.00 0.00 77 1004.5
20260503174442 71 0 0.0 0.0 0.00 0.00 0.00 78 1004.5
20260503173957 71 0 0.0 0.0 0.00 0.00 0.00 78 1004.3
20260503173942 71 0 0.0 0.0 0.00 0.00 0.00 78 1004.2
20260503173443 71 0 0.0 0.0 0.00 0.00 0.00 79 1004.3
20260503172959 71 0 0.0 0.0 0.00 0.00 0.00 79 1004.3
20260503172943 71 0 0.0 0.0 0.00 0.00 0.00 79 1004.4
20260503172459 71 0 0.0 0.0 0.00 0.00 0.00 79 1004.5
20260503172443 71 0 0.0 0.0 0.00 0.00 0.00 79 1004.4
20260503171943 71 0 0.0 0.0 0.00 0.00 0.00 78 1004.3
20260503171458 71 0 0.0 0.0 0.00 0.00 0.00 78 1004.3
20260503171443 71 0 0.0 0.0 0.00 0.00 0.00 78 1004.4
20260503170943 71 0 0.0 0.0 0.00 0.00 0.00 78 1004.3
20260503170443 71 0 0.0 0.0 0.00 0.00 0.00 79 1004.3
20260503150941 73 0 0.0 0.0 0.00 0.00 0.00 81 1004.0
20260503150454 73 0 0.0 0.0 0.00 0.00 0.00 80 1004.1
20260503150441 73 0 0.0 0.0 0.00 0.00 0.00 80 1004.0
20260503130940 78 0 0.0 0.0 0.00 0.00 0.00 82 1001.5
20260503130452 78 0 0.0 0.0 0.00 0.00 0.00 82 1001.6
20260503130441 78 0 0.0 0.0 0.00 0.00 0.00 82 1001.5